User: anonymous   Login
Location: Ayer Observatory
(42.2600°N, 71.0700°W)
Time: 02:17:47
(UTC-04:00)
Language:

XW-2D - Orbit

View from above orbital plane
View from above orbital plane
View from above satellite
View from above satellite

Ground track
Ground track

The orbit data is extracted from the following two-line orbital elements,

1 40907U 15049J   19199.74572446  .00000398  00000-0  24207-4 0  9996
2 40907  97.4644 201.0031 0015808  91.9894 354.7155 15.15881574211565
Epoch (UTC): 18 July 2019 17:53:50
Eccentricity: 0.0015808
inclination: 97.4644°
perigee height: 507 km
apogee height: 529 km
right ascension of ascending node: 201.0031°
argument of perigee: 91.9894°
revolutions per day: 15.15881574
mean anomaly at epoch: 354.7155°
orbit number at epoch: 21156

The dashed part of the orbit path shows where the satellite is in the earth's shadow,  

DLR